This demonstration page uses our WeatherBlox Daily Observations layout. Learn more.

Left ArrowRight Arrow

38.80484, -77.04692

Hourly Observations for May 13, 2015

Temp ( °F °C ) Dew Point ( °F °C ) Humidity (%) Winds ( mph kmh ) Pressure ( in mb ) Visibility ( mi km ) Precip ( " mm )
12:52 am 00:52 Mostly Cloudy 72 22.2 44 6.7 37 37 NNW 12 19 30.00 1016 10 16 0.00 0.00
1:52 am 01:52 Cloudy 71 21.7 43 6.1 36 36 NNW 18 30 30.01 1016 10 16 0.00 0.00
2:52 am 02:52 Mostly Cloudy 69 20.6 44 6.7 41 41 NNW 13 20 30.03 1017 10 16 0.00 0.00
3:52 am 03:52 Mostly Cloudy 67 19.4 44 6.7 44 44 NNW 10 17 30.06 1018 10 16 0.00 0.00
4:52 am 04:52 Mostly Cloudy 66 18.9 43 6.1 43 43 NNW 15 24 30.07 1018 10 16 0.00 0.00
5:52 am 05:52 Mostly Cloudy 65 18.3 43 6.1 45 45 NW 13 20 30.09 1019 10 16 0.00 0.00
6:52 am 06:52 Mostly Cloudy 64 17.8 43 6.1 46 46 NNW 14 22 30.13 1020 10 16 0.00 0.00
7:22 am 07:22 Mostly Cloudy 63 17 43 6 49 49 NW 14 22 30.15 1021 10 16 0.00 0.00
7:52 am 07:52 Mostly Cloudy 64 17.8 41 5 43 43 NW 14 22 30.17 1022 10 16 0.00 0.00
8:52 am 08:52 Partly Cloudy 63 17.2 40 4.4 43 43 NNW 18 30 30.19 1022 10 16 0.00 0.00
9:52 am 09:52 Mostly Cloudy 66 18.9 41 5 40 40 NNW 20 31 30.21 1023 10 16 0.00 0.00
10:52 am 10:52 Mostly Cloudy 64 17.8 40 4.4 41 41 NNW 17 28 30.22 1024 10 16 0.00 0.00
11:52 am 11:52 Mostly Cloudy 66 18.9 42 5.6 42 42 NW 16 26 30.24 1024 10 16 0.00 0.00
12:52 pm 12:52 Mostly Cloudy 66 18.9 43 6.1 43 43 NNW 18 30 30.23 1024 10 16 0.00 0.00
1:52 pm 13:52 Mostly Cloudy 65 18.3 42 5.6 43 43 NW 17 28 30.22 1023 10 16 0.00 0.00
2:52 pm 14:52 Mostly Cloudy 68 20 42 5.6 39 39 NW 17 28 30.22 1023 10 16 0.00 0.00
3:52 pm 15:52 Mostly Cloudy 67 19.4 41 5 39 39 NW 21 33 30.22 1023 10 16 0.00 0.00
4:52 pm 16:52 Mostly Cloudy 66 18.9 41 5 40 40 NNW 17 28 30.22 1024 10 16 0.00 0.00
5:52 pm 17:52 Mostly Cloudy 65 18.3 41 5 42 42 NW 15 24 30.24 1024 10 16 0.00 0.00
6:52 pm 18:52 Mostly Cloudy 64 17.8 42 5.6 45 45 NNW 16 26 30.24 1024 10 16 0.00 0.00
7:52 pm 19:52 Mostly Cloudy 63 17.2 40 4.4 43 43 NNW 16 26 30.27 1025 10 16 0.00 0.00
8:52 pm 20:52 Mostly Clear 61 16.1 41 5 48 48 NW 13 20 30.29 1026 10 16 0.00 0.00
9:52 pm 21:52 Mostly Clear 60 15.6 41 5 50 50 NW 16 26 30.30 1026 10 16 0.00 0.00
10:52 pm 22:52 Mostly Clear 59 15 41 5 51 51 NW 13 20 30.32 1027 10 16 0.00 0.00
11:52 pm 23:52 Mostly Clear 57 13.9 41 5 55 55 NW 13 20 30.34 1027 10 16 0.00 0.00

Powered by AerisWeather